Location: Badger Butte
(44.9311°N, 118.3053°W)
Time: 23:56:38
(UTC+00:00)

Daily predictions for brighter satellites

Satellite Brightness Start Highest point End
(mag) Time Altitude Azimuth Time Altitude Azimuth Time Altitude Azimuth
ARIANE 5 R/B 4.2 12:01:47 10° NNW 12:04:53 17° WNW 12:04:53 17° WNW
MTI 3.7 12:05:03 53° SSW 12:05:40 69° WSW 12:08:58 10° NNW
CENTAUR R/B 3.8 12:04:27 21° WNW 12:07:33 30° NNW 12:13:47 10° NNE
Cosmos 2219 Rocket 3.5 12:02:38 10° S 12:07:46 39° ESE 12:12:56 10° NE
SL-8 R/B 4.1 12:05:35 25° WNW 12:08:12 58° N 12:12:55 10° E
Cosmos 1544 Rocket 4.1 12:06:51 10° NNW 12:10:55 35° W 12:11:13 35° W
Cosmos 2074 Rocket 4.3 12:05:10 10° NNW 12:11:02 43° W 12:16:33 11° SSW
Cosmos 2341 Rocket 4.2 12:05:18 10° N 12:11:35 77° E 12:17:48 10° SSE
CZ-4B R/B 2.7 12:10:20 10° N 12:13:51 52° WNW 12:14:46 39° WSW
IRS-1C Rocket 4.0 12:09:16 10° N 12:14:31 73° WNW 12:19:02 14° SSW
Cosmos 1844 Rocket 2.7 12:09:07 10° NNW 12:14:44 86° ENE 12:20:19 10° SSE
Cosmos 1812 4.0 12:15:17 25° WNW 12:15:17 25° WNW 12:18:06 10° NNW
CZ-2D R/B 3.9 12:12:12 10° NNW 12:15:22 16° WNW 12:15:59 15° WNW
Cosmos 1570 Rocket 3.9 12:11:45 17° SSW 12:15:50 88° WNW 12:21:06 10° NNE
Resurs 1-4 Rocket 3.9 12:16:53 10° NNW 12:19:21 13° NW 12:19:51 13° WNW
Cosmos 1898 Rocket 4.1 12:15:05 10° NNW 12:20:15 58° ENE 12:25:21 10° SE
Okean O Rocket 1.9 12:18:05 10° N 12:22:21 46° WNW 12:24:46 23° SW
Cosmos 2360 Rocket 2.6 12:21:28 25° WSW 12:24:26 45° WNW 12:29:51 10° NNE
Cosmos 2278 Rocket 3.3 12:19:38 10° NNW 12:25:09 48° ENE 12:30:36 10° SE
Cosmos 1980 Rocket 4.4 12:26:21 10° NW 12:26:55 10° NW 12:27:29 10° NNW
BREEZE-M DEB (TANK) 4.1 12:25:06 18° SW 12:28:08 61° SE 12:43:59 10° ENE
Cosmos 1340 3.4 12:27:50 28° WSW 12:28:47 32° WNW 12:32:14 10° N
Meteor 2-4 Rocket 4.0 12:26:39 10° S 12:32:13 69° E 12:37:40 10° NNE
Okean-O 3.0 12:28:11 10° NNE 12:32:37 65° ESE 12:37:01 10° S
Cosmos 2237 Rocket 3.7 12:27:39 10° S 12:32:49 37° ESE 12:38:01 10° NE
Cosmos 1666 2.6 12:30:18 10° N 12:34:12 86° WSW 12:38:04 10° S
COSMO-SKYMED 1 4.0 12:30:51 10° SE 12:34:55 42° ENE 12:39:01 10° N
Cosmos 1743 2.9 12:32:57 10° NNW 12:36:41 47° W 12:40:22 10° SSW
Meteor 1-31 Rocket 2.8 12:33:53 10° NNE 12:37:42 79° E 12:41:31 10° S
Cosmos 1455 Rocket 4.4 12:41:31 10° NW 12:44:40 19° W 12:46:11 17° WSW
DELTA 2 R/B (1) 4.2 12:42:06 15° SW 12:46:19 44° S 12:51:34 10° E
Cosmos 1025 Rocket 3.2 12:42:08 10° S 12:46:30 79° E 12:50:55 10° N
ATLAS 5 CENTAUR R/B 2.7 12:41:00 10° NW 12:46:57 73° NE 12:53:25 10° SE
ADEOS II 2.6 12:42:34 10° N 12:47:27 40° WNW 12:52:18 10° SW
EO 1 Del DPAF 4.5 12:44:46 11° SW 12:47:29 22° W 12:50:32 10° NW
Cosmos 2285 Rocket 4.3 12:41:16 10° S 12:47:40 73° ESE 12:54:05 10° NNE
Cosmos 2333 Rocket 2.6 12:43:38 10° SSW 12:49:16 67° ESE 12:54:59 10° NNE
Cosmos 1937 Rocket 3.7 12:47:13 10° NNW 12:52:35 79° ENE 12:57:53 10° SSE
NOAA 6 4.3 12:51:22 10° NNE 12:56:31 73° ESE 13:01:36 10° S
NOSS 0 Rocket 4.3 12:52:07 10° SSW 12:58:15 70° ESE 13:04:23 10° NNE
USA 116 4.3 12:55:19 10° S 12:59:18 43° W 13:03:49 10° NNW
Cosmos 1959 Rocket 4.5 12:54:14 10° N 13:00:23 88° W 13:06:30 10° S
Cosmos 2298 Rocket 4.0 12:57:16 10° NNW 13:02:36 71° WSW 13:07:54 10° S
Lacrosse 4 Rocket 2.9 13:00:55 10° WNW 13:03:40 17° WSW 13:06:27 10° SSW
Tiangong 2 2.3 13:03:25 13° WSW 13:05:42 27° SSW 13:08:25 10° SE
SJ-6F 4.4 13:02:23 10° N 13:06:28 72° WNW 13:10:31 10° SSW
Cosmos 1238 Rocket 3.6 13:04:34 10° WSW 13:06:46 19° WNW 13:09:01 10° NNW
Aureole 2 Rocket 2.9 13:03:33 10° S 13:07:12 65° ESE 13:10:34 10° NNE
Cosmos 1437 2.8 13:05:55 10° S 13:09:12 89° E 13:12:30 10° N
Iridium 2 3.7 13:07:26 10° NNW 13:11:12 57° W 13:14:57 10° S
Cosmos 2366 rocket 4.1 13:05:20 10° N 13:11:42 83° W 13:18:04 10° S
Cosmos 1814 Rocket 4.0 13:09:49 10° SSW 13:15:02 90° SE 13:20:14 10° NNE
Cosmos 1844 4.1 13:11:28 10° NW 13:16:51 41° WSW 13:22:08 10° S
Cosmos 2058 Rocket 3.2 13:15:13 10° N 13:19:44 87° E 13:24:12 10° S
CZ-4B R/B 4.4 13:17:25 10° N 13:21:52 24° WNW 13:26:16 10° WSW
